﻿測定場所 (Monitoring sites),日付 (Measurement date),時間 (Measurement time),線量率 最大値 (max) μGy/h,線量率 最小値 (min) μGy/h,線量率 平均値 (average) μGy/h,
新宿 (Shinjuku),2012-05-06,23:01～24:00,0.0541,0.0459,0.0493,
新宿 (Shinjuku),2012-05-06,22:01～23:00,0.0517,0.0457,0.0489,
新宿 (Shinjuku),2012-05-06,21:01～22:00,0.0528,0.0455,0.0488,
新宿 (Shinjuku),2012-05-06,20:01～21:00,0.0519,0.0458,0.0485,
新宿 (Shinjuku),2012-05-06,19:01～20:00,0.0536,0.0457,0.0491,
新宿 (Shinjuku),2012-05-06,18:01～19:00,0.0536,0.0457,0.0501,
新宿 (Shinjuku),2012-05-06,17:01～18:00,0.0562,0.0478,0.0523,
新宿 (Shinjuku),2012-05-06,16:01～17:00,0.0562,0.0494,0.0522,
新宿 (Shinjuku),2012-05-06,15:01～16:00,0.0569,0.0479,0.0526,
新宿 (Shinjuku),2012-05-06,14:01～15:00,0.0525,0.0461,0.0494,
新宿 (Shinjuku),2012-05-06,13:01～14:00,0.0533,0.0456,0.0493,
新宿 (Shinjuku),2012-05-06,12:01～13:00,0.0530,0.0453,0.0498,
新宿 (Shinjuku),2012-05-06,11:01～12:00,0.0542,0.0472,0.0501,
新宿 (Shinjuku),2012-05-06,10:01～11:00,0.0527,0.0460,0.0494,
新宿 (Shinjuku),2012-05-06,09:01～10:00,0.0534,0.0472,0.0497,
新宿 (Shinjuku),2012-05-06,08:01～09:00,0.0521,0.0470,0.0497,
新宿 (Shinjuku),2012-05-06,07:01～08:00,0.0535,0.0457,0.0498,
新宿 (Shinjuku),2012-05-06,06:01～07:00,0.0543,0.0461,0.0495,
新宿 (Shinjuku),2012-05-06,05:01～06:00,0.0530,0.0456,0.0490,
新宿 (Shinjuku),2012-05-06,04:01～05:00,0.0535,0.0452,0.0490,
新宿 (Shinjuku),2012-05-06,03:01～04:00,0.0534,0.0459,0.0491,
新宿 (Shinjuku),2012-05-06,02:01～03:00,0.0521,0.0457,0.0491,
新宿 (Shinjuku),2012-05-06,01:01～02:00,0.0527,0.0457,0.0492,
新宿 (Shinjuku),2012-05-06,00:01～01:00,0.0519,0.0455,0.0489,
新宿 (Shinjuku),2012-05-05,23:01～24:00,0.0526,0.0456,0.0492,
新宿 (Shinjuku),2012-05-05,22:01～23:00,0.0530,0.0466,0.0494,
新宿 (Shinjuku),2012-05-05,21:01～22:00,0.0536,0.0461,0.0492,
新宿 (Shinjuku),2012-05-05,20:01～21:00,0.0529,0.0463,0.0492,
新宿 (Shinjuku),2012-05-05,19:01～20:00,0.0539,0.0449,0.0492,
新宿 (Shinjuku),2012-05-05,18:01～19:00,0.0532,0.0461,0.0491,
新宿 (Shinjuku),2012-05-05,17:01～18:00,0.0516,0.0465,0.0488,
新宿 (Shinjuku),2012-05-05,16:01～17:00,0.0519,0.0458,0.0487,
新宿 (Shinjuku),2012-05-05,15:01～16:00,0.0518,0.0456,0.0493,
新宿 (Shinjuku),2012-05-05,14:01～15:00,0.0536,0.0463,0.0497,
新宿 (Shinjuku),2012-05-05,13:01～14:00,0.0546,0.0461,0.0498,
新宿 (Shinjuku),2012-05-05,12:01～13:00,0.0540,0.0463,0.0496,
新宿 (Shinjuku),2012-05-05,11:01～12:00,0.0539,0.0473,0.0496,
新宿 (Shinjuku),2012-05-05,10:01～11:00,0.0522,0.0471,0.0495,
新宿 (Shinjuku),2012-05-05,09:01～10:00,0.0532,0.0455,0.0491,
新宿 (Shinjuku),2012-05-05,08:01～09:00,0.0525,0.0457,0.0495,
新宿 (Shinjuku),2012-05-05,07:01～08:00,0.0535,0.0453,0.0488,
新宿 (Shinjuku),2012-05-05,06:01～07:00,0.0523,0.0456,0.0491,
新宿 (Shinjuku),2012-05-05,05:01～06:00,0.0514,0.0455,0.0488,
新宿 (Shinjuku),2012-05-05,04:01～05:00,0.0516,0.0455,0.0487,
新宿 (Shinjuku),2012-05-05,03:01～04:00,0.0521,0.0451,0.0489,
新宿 (Shinjuku),2012-05-05,02:01～03:00,0.0525,0.0444,0.0487,
新宿 (Shinjuku),2012-05-05,01:01～02:00,0.0520,0.0461,0.0490,
新宿 (Shinjuku),2012-05-05,00:01～01:00,0.0520,0.0464,0.0492,
新宿 (Shinjuku),2012-05-04,23:01～24:00,0.0558,0.0470,0.0504,
新宿 (Shinjuku),2012-05-04,22:01～23:00,0.0546,0.0473,0.0511,
新宿 (Shinjuku),2012-05-04,21:01～22:00,0.0560,0.0457,0.0492,
新宿 (Shinjuku),2012-05-04,20:01～21:00,0.0524,0.0453,0.0492,
新宿 (Shinjuku),2012-05-04,19:01～20:00,0.0528,0.0460,0.0492,
新宿 (Shinjuku),2012-05-04,18:01～19:00,0.0528,0.0468,0.0496,
新宿 (Shinjuku),2012-05-04,17:01～18:00,0.0548,0.0461,0.0509,
新宿 (Shinjuku),2012-05-04,16:01～17:00,0.0617,0.0502,0.0554,
新宿 (Shinjuku),2012-05-04,15:01～16:00,0.0654,0.0575,0.0607,
新宿 (Shinjuku),2012-05-04,14:01～15:00,0.0618,0.0465,0.0545,
新宿 (Shinjuku),2012-05-04,13:01～14:00,0.0525,0.0466,0.0493,
新宿 (Shinjuku),2012-05-04,12:01～13:00,0.0533,0.0464,0.0492,
新宿 (Shinjuku),2012-05-04,11:01～12:00,0.0536,0.0469,0.0498,
新宿 (Shinjuku),2012-05-04,10:01～11:00,0.0537,0.0475,0.0501,
新宿 (Shinjuku),2012-05-04,09:01～10:00,0.0560,0.0474,0.0521,
新宿 (Shinjuku),2012-05-04,08:01～09:00,0.0588,0.0508,0.0548,
新宿 (Shinjuku),2012-05-04,07:01～08:00,0.0584,0.0496,0.0542,
新宿 (Shinjuku),2012-05-04,06:01～07:00,0.0532,0.0474,0.0509,
新宿 (Shinjuku),2012-05-04,05:01～06:00,0.0548,0.0470,0.0503,
新宿 (Shinjuku),2012-05-04,04:01～05:00,0.0550,0.0474,0.0512,
新宿 (Shinjuku),2012-05-04,03:01～04:00,0.0545,0.0468,0.0513,
新宿 (Shinjuku),2012-05-04,02:01～03:00,0.0543,0.0469,0.0500,
新宿 (Shinjuku),2012-05-04,01:01～02:00,0.0534,0.0459,0.0492,
新宿 (Shinjuku),2012-05-04,00:01～01:00,0.0535,0.0455,0.0492,
新宿 (Shinjuku),2012-05-03,23:01～24:00,0.0523,0.0461,0.0491,
新宿 (Shinjuku),2012-05-03,22:01～23:00,0.0536,0.0458,0.0492,
新宿 (Shinjuku),2012-05-03,21:01～22:00,0.0524,0.0461,0.0490,
新宿 (Shinjuku),2012-05-03,20:01～21:00,0.0519,0.0454,0.0487,
新宿 (Shinjuku),2012-05-03,19:01～20:00,0.0513,0.0459,0.0490,
新宿 (Shinjuku),2012-05-03,18:01～19:00,0.0532,0.0463,0.0502,
新宿 (Shinjuku),2012-05-03,17:01～18:00,0.0544,0.0460,0.0508,
新宿 (Shinjuku),2012-05-03,16:01～17:00,0.0556,0.0492,0.0525,
新宿 (Shinjuku),2012-05-03,15:01～16:00,0.0575,0.0495,0.0533,
新宿 (Shinjuku),2012-05-03,14:01～15:00,0.0587,0.0501,0.0535,
新宿 (Shinjuku),2012-05-03,13:01～14:00,0.0602,0.0495,0.0549,
新宿 (Shinjuku),2012-05-03,12:01～13:00,0.0674,0.0564,0.0622,
新宿 (Shinjuku),2012-05-03,11:01～12:00,0.0687,0.0569,0.0632,
新宿 (Shinjuku),2012-05-03,10:01～11:00,0.0654,0.0534,0.0583,
新宿 (Shinjuku),2012-05-03,09:01～10:00,0.0683,0.0560,0.0616,
新宿 (Shinjuku),2012-05-03,08:01～09:00,0.0722,0.0643,0.0677,
新宿 (Shinjuku),2012-05-03,07:01～08:00,0.0749,0.0655,0.0695,
新宿 (Shinjuku),2012-05-03,06:01～07:00,0.0724,0.0615,0.0670,
新宿 (Shinjuku),2012-05-03,05:01～06:00,0.0690,0.0577,0.0636,
新宿 (Shinjuku),2012-05-03,04:01～05:00,0.0625,0.0535,0.0579,
新宿 (Shinjuku),2012-05-03,03:01～04:00,0.0589,0.0521,0.0555,
新宿 (Shinjuku),2012-05-03,02:01～03:00,0.0578,0.0483,0.0545,
新宿 (Shinjuku),2012-05-03,01:01～02:00,0.0574,0.0504,0.0543,
新宿 (Shinjuku),2012-05-03,00:01～01:00,0.0572,0.0497,0.0534,
新宿 (Shinjuku),2012-05-02,23:01～24:00,0.0568,0.0494,0.0528,
新宿 (Shinjuku),2012-05-02,22:01～23:00,0.0543,0.0482,0.0516,
新宿 (Shinjuku),2012-05-02,21:01～22:00,0.0563,0.0488,0.0520,
新宿 (Shinjuku),2012-05-02,20:01～21:00,0.0554,0.0495,0.0520,
新宿 (Shinjuku),2012-05-02,19:01～20:00,0.0553,0.0485,0.0522,
新宿 (Shinjuku),2012-05-02,18:01～19:00,0.0569,0.0470,0.0517,
新宿 (Shinjuku),2012-05-02,17:01～18:00,0.0557,0.0464,0.0509,
新宿 (Shinjuku),2012-05-02,16:01～17:00,0.0552,0.0472,0.0509,
新宿 (Shinjuku),2012-05-02,15:01～16:00,0.0558,0.0467,0.0505,
新宿 (Shinjuku),2012-05-02,14:01～15:00,0.0563,0.0467,0.0505,
新宿 (Shinjuku),2012-05-02,13:01～14:00,0.0539,0.0466,0.0500,
新宿 (Shinjuku),2012-05-02,12:01～13:00,0.0536,0.0458,0.0498,
新宿 (Shinjuku),2012-05-02,11:01～12:00,0.0516,0.0455,0.0488,
新宿 (Shinjuku),2012-05-02,10:01～11:00,0.0528,0.0454,0.0491,
新宿 (Shinjuku),2012-05-02,09:01～10:00,0.0528,0.0461,0.0486,
新宿 (Shinjuku),2012-05-02,08:01～09:00,0.0523,0.0459,0.0491,
新宿 (Shinjuku),2012-05-02,07:01～08:00,0.0532,0.0456,0.0492,
新宿 (Shinjuku),2012-05-02,06:01～07:00,0.0524,0.0457,0.0493,
新宿 (Shinjuku),2012-05-02,05:01～06:00,0.0516,0.0443,0.0485,
新宿 (Shinjuku),2012-05-02,04:01～05:00,0.0525,0.0460,0.0489,
新宿 (Shinjuku),2012-05-02,03:01～04:00,0.0518,0.0457,0.0491,
新宿 (Shinjuku),2012-05-02,02:01～03:00,0.0512,0.0465,0.0490,
新宿 (Shinjuku),2012-05-02,01:01～02:00,0.0543,0.0455,0.0492,
新宿 (Shinjuku),2012-05-02,00:01～01:00,0.0534,0.0463,0.0489,
新宿 (Shinjuku),2012-05-01,23:01～24:00,0.0533,0.0460,0.0487,
新宿 (Shinjuku),2012-05-01,22:01～23:00,0.0531,0.0465,0.0493,
新宿 (Shinjuku),2012-05-01,21:01～22:00,0.0526,0.0449,0.0487,
新宿 (Shinjuku),2012-05-01,20:01～21:00,0.0527,0.0450,0.0482,
新宿 (Shinjuku),2012-05-01,19:01～20:00,0.0526,0.0458,0.0489,
新宿 (Shinjuku),2012-05-01,18:01～19:00,0.0527,0.0460,0.0485,
新宿 (Shinjuku),2012-05-01,17:01～18:00,0.0522,0.0447,0.0485,
新宿 (Shinjuku),2012-05-01,16:01～17:00,0.0515,0.0452,0.0487,
新宿 (Shinjuku),2012-05-01,15:01～16:00,0.0523,0.0463,0.0489,
新宿 (Shinjuku),2012-05-01,14:01～15:00,0.0522,0.0441,0.0490,
新宿 (Shinjuku),2012-05-01,13:01～14:00,0.0517,0.0461,0.0485,
新宿 (Shinjuku),2012-05-01,12:01～13:00,0.0522,0.0455,0.0490,
新宿 (Shinjuku),2012-05-01,11:01～12:00,0.0525,0.0451,0.0494,
新宿 (Shinjuku),2012-05-01,10:01～11:00,0.0528,0.0459,0.0490,
新宿 (Shinjuku),2012-05-01,09:01～10:00,0.0530,0.0454,0.0490,
新宿 (Shinjuku),2012-05-01,08:01～09:00,0.0529,0.0443,0.0491,
新宿 (Shinjuku),2012-05-01,07:01～08:00,0.0526,0.0462,0.0492,
新宿 (Shinjuku),2012-05-01,06:01～07:00,0.0521,0.0453,0.0491,
新宿 (Shinjuku),2012-05-01,05:01～06:00,0.0527,0.0455,0.0489,
新宿 (Shinjuku),2012-05-01,04:01～05:00,0.0528,0.0457,0.0486,
新宿 (Shinjuku),2012-05-01,03:01～04:00,0.0530,0.0456,0.0490,
新宿 (Shinjuku),2012-05-01,02:01～03:00,0.0522,0.0458,0.0486,
新宿 (Shinjuku),2012-05-01,01:01～02:00,0.0516,0.0453,0.0487,
新宿 (Shinjuku),2012-05-01,00:01～01:00,0.0530,0.0451,0.0488,
新宿 (Shinjuku),2012-04-30,23:01～24:00,0.0530,0.0453,0.0490,
新宿 (Shinjuku),2012-04-30,22:01～23:00,0.0531,0.0439,0.0487,
新宿 (Shinjuku),2012-04-30,21:01～22:00,0.0518,0.0454,0.0486,
新宿 (Shinjuku),2012-04-30,20:01～21:00,0.0527,0.0456,0.0487,
新宿 (Shinjuku),2012-04-30,19:01～20:00,0.0523,0.0458,0.0489,
新宿 (Shinjuku),2012-04-30,18:01～19:00,0.0521,0.0456,0.0489,
新宿 (Shinjuku),2012-04-30,17:01～18:00,0.0518,0.0446,0.0485,
新宿 (Shinjuku),2012-04-30,16:01～17:00,0.0515,0.0455,0.0488,
新宿 (Shinjuku),2012-04-30,15:01～16:00,0.0523,0.0448,0.0489,
新宿 (Shinjuku),2012-04-30,14:01～15:00,0.0524,0.0462,0.0491,
新宿 (Shinjuku),2012-04-30,13:01～14:00,0.0527,0.0452,0.0489,
新宿 (Shinjuku),2012-04-30,12:01～13:00,0.0525,0.0447,0.0488,
新宿 (Shinjuku),2012-04-30,11:01～12:00,0.0525,0.0458,0.0487,
新宿 (Shinjuku),2012-04-30,10:01～11:00,0.0534,0.0468,0.0492,
新宿 (Shinjuku),2012-04-30,09:01～10:00,0.0527,0.0455,0.0492,
新宿 (Shinjuku),2012-04-30,08:01～09:00,0.0527,0.0458,0.0488,
新宿 (Shinjuku),2012-04-30,07:01～08:00,0.0521,0.0458,0.0490,
新宿 (Shinjuku),2012-04-30,06:01～07:00,0.0525,0.0454,0.0492,
新宿 (Shinjuku),2012-04-30,05:01～06:00,0.0518,0.0452,0.0489,
新宿 (Shinjuku),2012-04-30,04:01～05:00,0.0536,0.0462,0.0491,
新宿 (Shinjuku),2012-04-30,03:01～04:00,0.0536,0.0451,0.0495,
新宿 (Shinjuku),2012-04-30,02:01～03:00,0.0526,0.0463,0.0492,
新宿 (Shinjuku),2012-04-30,01:01～02:00,0.0524,0.0459,0.0494,
新宿 (Shinjuku),2012-04-30,00:01～01:00,0.0522,0.0461,0.0492,
